Home > Time Zones > World Clock > Weather > U.S.A. > Adak > Past weeks

Flag for U.S.A. Weather past 2 weeks in Adak, Alaska, U.S.A.

Now
39 °F

Overcast.


Feels Like: 29 °F
Forecast: 36 / 39 °F
Wind: 20 mph from South

Location: Adak

Current Time: Feb 28, 2015 at 3:29:20 PM

Latest Report: Feb 28, 2015 at 2:56 PM


Visibility: 10 mi

Pressure: 30.16 "Hg

Humidity: 61%

Dew point: 27 °F

Location of AdakLocation

Historic Weather in Adak — Graph

°F

Adak temperature yesterday

Maximum temperature yesterday: 39 °F (at 1:16 PM)
Minimum temperature yesterday: 30 °F (at 9:56 PM)
Average temperature yesterday: 36 °F

Past Weeks' High & Low Weather Summary

 TemperatureHumidityPressure
High39 °F (Feb 16, 3:16 PM)93% (Feb 17, 6:16 AM)30.34 "Hg (Feb 17, 6:16 AM)
Low19 °F (Feb 24, 3:16 AM)44% (Feb 23, 3:56 PM)29.45 "Hg (Feb 16, 10:36 AM)
Average34 °F69%29.83 "Hg
* Reported Feb 13 1:16 PM — Feb 28 1:56 PM, Adak, Weather by CustomWeather, © 2015

Note: Actual official high and low records may vary slightly from our data, if they occured in-between our weather recording intervals... More about our weather records

Advertising

Adak weather history for previous 24 hours

 ConditionsComfort  
Time TempWeatherWind HumidityBarometerVisibility
1:56 PM
Sat, Feb 28
39 °FOvercast.21 mph56%30.19 "Hg10 mi
1:36 PM39 °FOvercast.21 mph56%30.20 "Hg10 mi
1:16 PM39 °FOvercast.18 mph56%30.21 "Hg10 mi
12:56 PM39 °FOvercast.18 mph56%30.22 "Hg10 mi
12:36 PM37 °FOvercast.18 mph60%30.23 "Hg10 mi
12:16 PM37 °FOvercast.15 mph60%30.23 "Hg10 mi
11:56 AM37 °FOvercast.16 mph60%30.24 "Hg10 mi
11:36 AM37 °FOvercast.24 mph60%30.25 "Hg10 mi
11:16 AM37 °FOvercast.16 mph60%30.26 "Hg10 mi
10:56 AM37 °FOvercast.17 mph60%30.26 "Hg10 mi
10:36 AM37 °FOvercast.16 mph60%30.27 "Hg10 mi
10:16 AM37 °FOvercast.13 mph56%30.28 "Hg10 mi
9:56 AM36 °FOvercast.17 mph60%30.28 "Hg10 mi
9:36 AM36 °FOvercast.12 mph60%30.28 "Hg10 mi
9:16 AM36 °FOvercast.16 mph56%30.28 "Hg10 mi
8:56 AM36 °FOvercast.13 mph56%30.28 "Hg10 mi
8:36 AM36 °FOvercast.13 mph56%30.29 "Hg10 mi
8:16 AM36 °FOvercast.13 mph56%30.30 "Hg10 mi
7:56 AM36 °FOvercast.12 mph56%30.30 "Hg10 mi
7:36 AM36 °FOvercast.14 mph56%30.29 "Hg10 mi
7:16 AM36 °FOvercast.9 mph56%30.29 "Hg10 mi
6:56 AM36 °FOvercast.7 mph56%30.29 "Hg10 mi
6:36 AM36 °FOvercast.8 mph56%30.29 "Hg10 mi
6:16 AM36 °FPassing clouds.5 mph56%30.29 "Hg10 mi
5:56 AM36 °FPassing clouds.7 mph56%30.30 "Hg10 mi
5:36 AM34 °FOvercast.6 mph60%30.29 "Hg10 mi
5:16 AMN/A5 mphN/A30.30 "HgN/A
4:56 AM32 °FOvercast.No wind80%30.31 "Hg10 mi
4:36 AM32 °FOvercast.No wind80%30.31 "Hg10 mi
4:16 AM32 °FOvercast.No wind80%30.32 "Hg10 mi
3:56 AM34 °FOvercast.No wind75%30.32 "Hg10 mi
3:36 AM34 °FOvercast.No wind75%30.33 "Hg10 mi
3:16 AM34 °FOvercast.3 mph75%30.33 "Hg10 mi
2:56 AM34 °FOvercast.3 mph75%30.33 "Hg10 mi
2:36 AM32 °FOvercast.3 mph80%30.32 "Hg10 mi
2:16 AM30 °FOvercast.5 mph80%30.32 "Hg10 mi
1:56 AM28 °FPassing clouds.No wind80%30.32 "Hg10 mi
1:36 AM30 °FPassing clouds.No wind80%30.33 "Hg10 mi
1:16 AM30 °FOvercast.6 mph80%30.33 "Hg10 mi
12:56 AM32 °FOvercast.6 mph80%30.34 "Hg10 mi
12:36 AM34 °FPassing clouds.7 mph75%30.34 "Hg10 mi
12:16 AM32 °FPassing clouds.7 mph75%30.34 "Hg10 mi
11:56 PM
Fri, Feb 27
30 °FPassing clouds.5 mph80%30.34 "Hg10 mi
11:36 PM34 °FMostly cloudy.6 mph75%30.34 "Hg10 mi
11:16 PM34 °FOvercast.3 mph70%30.33 "Hg10 mi
10:56 PM34 °FOvercast.No wind65%30.33 "Hg10 mi
10:36 PM34 °FOvercast.No wind60%30.32 "Hg10 mi
10:16 PM34 °FOvercast.3 mph60%30.33 "Hg10 mi
9:56 PM30 °FPassing clouds.5 mph75%30.32 "Hg10 mi
9:36 PM32 °FPassing clouds.3 mph64%30.31 "Hg10 mi
9:16 PM36 °FPassing clouds.5 mph56%30.30 "Hg10 mi
8:56 PM36 °FOvercast.8 mph65%30.30 "Hg10 mi
8:36 PM36 °FMostly cloudy.6 mph65%30.30 "Hg10 mi
8:16 PM36 °FMostly cloudy.5 mph65%30.28 "Hg10 mi
7:56 PM34 °FPassing clouds.5 mph56%30.26 "Hg10 mi
7:36 PM36 °FPassing clouds.6 mph52%30.27 "Hg10 mi
7:16 PM36 °FPassing clouds.7 mph52%30.27 "Hg10 mi
6:56 PM36 °FPassing clouds.8 mph52%30.25 "Hg10 mi
6:36 PM36 °FPassing clouds.7 mph56%30.24 "Hg10 mi
6:16 PM36 °FSunny.12 mph56%30.23 "Hg10 mi
5:36 PM37 °FSunny.14 mph56%30.21 "Hg10 mi
5:16 PM37 °FSunny.12 mph52%30.21 "Hg10 mi
4:56 PM39 °FSunny.13 mph48%30.21 "Hg10 mi
4:36 PM39 °FSunny.13 mph48%30.21 "Hg10 mi
4:16 PM39 °FSunny.12 mph48%30.20 "Hg10 mi
3:56 PM37 °FPassing clouds.10 mph52%30.20 "Hg10 mi
3:36 PM39 °FBroken clouds.14 mph52%30.19 "Hg10 mi
3:16 PM39 °FOvercast.7 mph52%30.19 "Hg10 mi
Weather by CustomWeather, © 2015

See weather overviewHow to use our weather pages